Simultaneous Nadir Overpasses (SNOs) Predictions

Prediction of SNOs between GOES-14 and NPP Satellite Orbit:

Table of predicted SNOs for the next 14.0 days since TLE Epoch: 4/2/2022
Index Date Time (GOES-14) GOES-14 Lat,Lon NPP Lat,Lon Distance(km) Time Diff (sec)
1 04/02/2022 20:08:33 -0.12,-104.46 0.62,-101.26 365.71 80
2 04/04/2022 08:30:20 0.12,-104.51 0.56,-106.52 229.00 80
3 04/05/2022 08:14:15 0.12,-104.52 -0.42,-101.99 288.44 80
4 04/06/2022 20:36:11 -0.12,-104.49 -0.74,-107.29 319.84 80
5 04/07/2022 20:14:46 -0.12,-104.47 0.24,-102.75 195.70 80
6 04/09/2022 08:36:33 0.12,-104.50 0.93,-108.02 402.44 80
7 04/10/2022 08:20:28 0.13,-104.50 -0.11,-103.50 115.00 80
8 04/11/2022 20:42:24 -0.12,-104.50 -1.10,-108.79 489.96 80
9 04/12/2022 20:20:59 -0.13,-104.49 -0.06,-104.27 25.83 80
10 04/15/2022 08:24:01 0.12,-104.49 0.23,-105.00 57.72 80
